Regional Weather Roundup
Issued by NWS Newport/Morehead, NC

Current Version | Previous Version | Text Only | Print | Product List | Glossary On
Versions: 1 2 3 4 5 6 7 8 9 10 11 12 13 14 15 16 17 18 19 20 21 22 23 24 25 26 27 28 29 30 31 32 33 34 35 36 37 38 39 40 41 42 43 44 45 46 47 48 49 50
000
ASUS42 KMHX 241113
RWRMHX
WEATHER ROUNDUP FOR EASTERN NORTH CAROLINA
NATIONAL WEATHER SERVICE NEWPORT/MOREHEAD CITY NC
700 AM EDT SUN JUL 24 2016

NOTE: "FAIR" INDICATES FEW OR NO CLOUDS BELOW 12,000 FEET
WITH NO SIGNIFICANT WEATHER AND/OR OBSTRUCTIONS TO VISIBILITY

NCZ015>017-031-032-045>047-102-103-241200-
NORTH COAST

CITY           SKY/WX    TMP DP  RH WIND       PRES   REMARKS
EDENTON        CLEAR     80  71  74 SW6       30.01R
ELIZABETH CITY CLEAR     77  74  90 SW7       30.00R
KITTY HAWK     SUNNY     79  75  85 SW8       29.99R
MANTEO           N/A     78  78  97 W9        30.00S

$$

NCZ045>047-081-094-103-104-241200-
CENTRAL COAST

CITY           SKY/WX    TMP DP  RH WIND       PRES   REMARKS
FRISCO         CLEAR     79  77  94 W6        30.01S

$$

NCZ095-097-098-100-101-241200-
SOUTHERN COAST

CITY           SKY/WX    TMP DP  RH WIND       PRES   REMARKS
BEAUFORT       PTCLDY    83  77  82 W7        30.02R
CEDAR ISLAND   NOT AVBL
JACKSONVILLE   CLOUDY    78  75  90 CALM      30.00S
PINEY ISLAND   SUNNY    N/A N/A N/A CALM      30.02
WILMINGTON     CLEAR     78  76  93 S5        30.01S


$$

NCZ011>013-027>030-043-044-078>080-089-090>093-098-241200-
COASTAL PLAIN

CITY           SKY/WX    TMP DP  RH WIND       PRES   REMARKS
AHOSKIE        CLEAR     74  73  96 CALM      30.01R
CLINTON        CLEAR     73  73 100 CALM      30.02R FOG
ELIZABETHTOWN  CLOUDY    75  75 100 CALM      30.01S FOG
GOLDSBORO      CLEAR     73  73 100 CALM      30.00S
GREENVILLE     CLEAR     73  73 100 CALM      30.03S
HAVELOCK       PTCLDY    77  74  90 CALM      30.03R
KENANSVILLE    NOT AVBL
KINSTON        CLEAR     73  72  94 CALM      30.02S
NEW BERN       CLEAR     77  75  93 CALM      30.03R
RICHLANDS      PTCLDY    75  75 100 CALM      30.02S FOG
ROCKY MOUNT    CLEAR     73  72  96 S3        30.01R
WASHINGTON     CLEAR     76  73  92 SW3       30.01S
WHITEVILLE     PTCLDY    76  74  95 CALM      30.00S

$$

AMZ130-135-150-152-154-156-158-170-250-252-270-ANZ085-086-088-633-658-670-241200-
MARINE OBSERVATIONS

STATION/POSITION TIME  TEMP    WIND        PRES    WAVE   SWELL
                       AIR SEA DIR/SP/G            HT/PER HT/PER
                 (UTC) (F)     (DEG/KT/KT) (MB)    (FT/S) (FT/S)
CHESAPEAKE LIGHT NOT AVBL
64 E VA BEACH    1050   81 81  240/ 16/ 19 1014.6    3/ 5   2/ 8
DUCK             1000   80 61  230/ 12/ 15 1014.9
2 E DUCK         1011      67                N/A     1/ 9
OREGON INLET     1000   81 85  230/ 16/ 18 1015.4
13E OREGON INLT  1100      82                N/A     2/ 8   2/ 8
HATTERAS CG      1000   80 83  220/  6/  8 1015.8
DIAMOND BUOY     1050   83 85  230/ 14/ 16 1016.1    3/ 4   2/ 8
CAPE LOOKOUT     1100   83     240/  5/  7 1016.3
BEAUFORT LAB     1000   83 83  240/  3/  9 1015.5
30 SE NEW RVR IN 1008   84 85  230/ 10/ 14 1016.2
30 SE NEW RVR IN 1025      84                N/A     3/ 8
27 SE WRIGHTSVLE 1008   84 84  230/ 10/ 12 1016.5
5 SE WRIGHTSVLE  1008   83 83  250/  6/  8 1017.3
225 S CAPE HAT   1050   83 84   20/  2/  4 1017.8    2/ 9   2/ 9
41 SE CHARLESTON 1050   85 86  250/ 12/ 14 1016.2    3/ 9   2/ 9

$$



USA.gov is the U.S. government's official web portal to all federal, state and local government web resources and services.